Date,TemperatureHighF,TemperatureAvgF,TemperatureLowF,DewpointHighF,DewpointAvgF,DewpointLowF,HumidityHigh,HumidityAvg,HumidityLow,PressureMaxIn,PressureMinIn,WindSpeedMaxMPH,WindSpeedAvgMPH,GustSpeedMaxMPH,PrecipitationSumIn
2013-1-1,34,23,9,-100,-100,-100,0,0,100,30.03,29.82,10,3,17,0.00
2013-1-2,26,19,9,-100,-100,-100,0,0,100,30.20,29.97,11,3,18,0.00
2013-1-3,29,21,12,-100,-100,-100,0,0,100,30.20,29.94,11,3,20,0.00
2013-1-4,33,31,27,-100,-100,-100,0,0,100,30.00,29.85,17,9,32,0.00
2013-1-5,36,32,30,-100,-100,-100,0,0,100,30.26,30.00,12,4,18,0.00
2013-1-6,38,34,30,36,-56,-100,100,30,86,30.06,29.85,10,3,18,0.00
2013-1-7,35,29,25,32,-93,-100,90,5,88,30.38,30.06,9,2,15,0.00
2013-1-8,39,31,27,-100,-100,-100,0,0,100,30.29,30.14,7,2,10,0.00
2013-1-9,49,37,27,-100,-100,-100,0,0,100,30.32,29.94,17,5,28,0.00
2013-1-10,43,38,34,-100,-100,-100,0,0,100,30.62,30.32,9,2,16,0.00
2013-1-11,46,40,34,41,-35,-100,97,39,62,30.44,29.88,7,4,10,0.00
2013-1-12,57,49,42,48,45,39,100,85,66,29.97,29.94,5,1,8,0.00
2013-1-13,69,56,48,54,50,46,100,81,45,29.97,29.73,14,2,18,0.00
2013-1-14,55,37,28,54,-58,-100,96,25,73,30.38,29.70,15,4,24,0.00
2013-1-15,34,30,26,-100,-100,-100,0,0,100,30.38,30.17,6,2,9,0.00
2013-1-16,38,33,30,-100,-100,-100,0,0,100,30.17,29.76,12,2,20,0.00
2013-1-17,36,26,17,-100,-100,-100,0,0,100,30.17,29.79,11,3,17,0.00
2013-1-18,31,20,12,-100,-100,-100,0,0,100,30.41,30.00,10,2,15,0.00
2013-1-19,49,42,31,-100,-100,-100,0,0,100,30.00,29.55,15,4,24,0.00
2013-1-20,49,32,18,-100,-100,-100,0,0,100,30.06,29.41,21,8,37,0.00
2013-1-21,21,18,13,-100,-100,-100,0,0,100,30.03,29.82,11,4,15,0.00
2013-1-22,13,10,8,-100,-100,-100,0,0,100,30.14,29.85,14,8,25,0.00
2013-1-23,13,9,6,-100,-100,-100,0,0,100,30.20,30.06,8,2,11,0.00
2013-1-24,14,11,8,-100,-100,-100,0,0,100,30.50,30.06,9,2,14,0.00
2013-1-25,17,12,8,-100,-100,-100,0,0,100,30.50,30.06,7,1,8,0.00
2013-1-26,24,15,5,-100,-100,-100,0,0,100,30.38,30.06,6,1,8,0.00
2013-1-27,29,22,15,-100,-100,-100,0,0,100,30.56,30.35,6,1,8,0.00
2013-1-28,43,33,24,43,-25,-100,100,53,97,30.35,29.82,8,1,13,0.00
2013-1-29,54,42,33,54,42,32,100,99,97,30.03,29.70,8,1,9,0.00
2013-1-30,63,58,52,55,49,43,100,73,51,29.70,28.99,10,3,12,0.00
2013-1-31,54,31,22,54,-82,-100,99,11,71,29.64,28.99,22,10,35,0.00
2013-2-1,22,20,18,-100,-100,-100,0,0,100,30.14,29.64,11,5,18,0.00
2013-2-2,21,18,15,-100,-100,-100,0,0,100,30.14,29.94,10,2,13,0.00
2013-2-3,25,19,14,-100,-100,-100,0,0,100,29.94,29.73,9,2,15,0.00
2013-2-4,23,19,16,-100,-100,-100,0,0,100,29.91,29.79,11,5,17,0.00
2013-2-5,27,22,16,-100,-100,-100,0,0,100,29.94,29.79,7,1,10,0.00
2013-2-6,28,23,16,-100,-100,-100,0,0,100,30.35,29.82,9,3,14,0.00
2013-2-7,30,24,16,-100,-100,-100,0,0,100,30.41,30.06,8,3,13,0.00
2013-2-8,34,29,18,34,-74,-100,100,19,96,30.06,29.73,6,1,10,0.00
2013-2-9,21,18,10,-100,-100,-100,0,0,100,30.41,30.03,0,0,0,0.00
2013-2-10,35,20,5,-100,-100,-100,0,0,100,30.38,29.94,5,0,8,0.00
2013-2-11,50,38,33,37,-60,-100,89,22,53,29.94,29.52,17,6,34,0.00
2013-2-12,36,33,31,32,-83,-100,99,13,96,29.94,29.67,16,8,26,0.00
2013-2-13,38,31,24,-100,-100,-100,0,0,100,29.88,29.67,5,1,8,0.00
2013-2-14,42,33,26,36,-71,-100,100,20,83,29.88,29.73,5,1,11,0.00
2013-2-15,39,34,24,37,-90,-100,100,7,79,30.03,29.73,15,6,22,0.00
2013-2-16,29,24,21,-100,-100,-100,0,0,100,30.03,29.88,6,2,10,0.00
2013-2-17,22,15,11,-100,-100,-100,0,0,100,30.14,29.85,10,3,18,0.00
2013-2-18,29,20,10,-100,-100,-100,0,0,100,30.26,29.88,7,2,10,0.00
2013-2-19,45,34,26,37,-78,-100,97,13,64,29.88,29.49,17,5,25,0.00
2013-2-20,26,22,19,-100,-100,-100,0,0,100,30.03,29.70,16,8,26,0.00
2013-2-21,22,18,13,-100,-100,-100,0,0,100,30.38,30.00,11,4,17,0.00
2013-2-22,34,28,21,-100,-100,-100,0,0,100,30.38,29.97,9,3,14,0.00
2013-2-23,39,34,32,32,-98,-100,90,1,89,29.97,29.82,8,2,13,0.00
2013-2-24,33,31,30,-100,-100,-100,0,0,100,30.03,29.82,10,4,17,0.00
2013-2-25,36,33,29,-100,-100,-100,0,0,100,30.20,30.03,7,2,10,0.00
2013-2-26,44,34,26,34,-82,-100,100,13,88,30.20,29.79,10,3,15,0.00
2013-2-27,35,34,33,36,34,34,100,100,97,29.79,29.52,5,1,8,0.00
2013-2-28,36,34,33,36,-11,-100,100,65,87,29.67,29.49,10,2,14,0.04
2013-3-1,33,30,26,34,-69,-100,100,23,95,29.88,29.67,8,2,10,0.00
2013-3-2,27,24,22,-100,-100,-100,0,0,100,29.91,29.82,8,3,11,0.00
2013-3-3,25,23,20,-100,-100,-100,0,0,100,29.85,29.79,8,2,13,0.00
2013-3-4,30,26,21,-100,-100,-100,0,0,100,30.03,29.85,13,5,17,0.00
2013-3-5,32,27,25,-100,-100,-100,0,0,100,30.06,29.94,6,2,10,0.00
2013-3-6,40,33,24,-100,-100,-100,0,0,100,30.11,29.94,7,2,10,0.00
2013-3-7,36,34,31,32,-79,-100,90,14,85,30.26,30.11,4,1,6,0.00
2013-3-8,41,35,30,-100,-100,-100,0,0,100,30.38,30.23,7,1,11,0.00
2013-3-9,48,36,26,36,-91,-100,100,7,80,30.41,30.20,5,1,7,0.00
2013-3-10,65,49,33,-100,-100,-100,0,0,100,30.20,29.94,6,1,8,0.00
2013-3-11,57,54,50,37,-91,-100,50,3,43,29.97,29.64,9,3,15,0.00
2013-3-12,56,40,35,46,-49,-100,97,31,50,29.88,29.64,12,6,18,0.00
2013-3-13,38,32,23,32,-98,-100,99,1,95,29.91,29.79,15,7,28,0.00
2013-3-14,32,25,19,-100,-100,-100,0,0,100,30.03,29.91,14,6,25,0.00
2013-3-15,38,31,24,34,-80,-100,100,15,92,30.00,29.67,13,5,25,0.00
2013-3-16,30,26,20,-100,-100,-100,0,0,100,29.94,29.82,6,2,8,0.00
2013-3-17,30,24,19,-100,-100,-100,0,0,100,30.32,29.94,6,2,11,0.00
2013-3-18,34,25,17,34,-98,-100,100,2,99,30.32,29.70,10,4,19,0.00
2013-3-19,36,32,26,34,-53,-100,100,32,85,29.79,29.64,15,5,26,0.00
2013-3-20,34,27,22,-100,-100,-100,0,0,100,29.79,29.76,13,6,22,0.00
2013-3-21,30,25,18,-100,-100,-100,0,0,100,29.79,29.67,12,5,19,0.00
2013-3-22,32,28,25,-100,-100,-100,0,0,100,29.88,29.67,10,6,20,0.00
2013-3-23,38,33,28,-100,-100,-100,0,0,100,29.97,29.85,9,4,17,0.00
2013-3-24,38,33,26,-100,-100,-100,0,0,100,29.97,29.70,5,1,10,0.00
2013-3-25,39,35,32,-100,-100,-100,0,0,100,29.70,29.58,6,2,10,0.00
2013-3-26,46,38,31,-100,-100,-100,0,0,100,29.91,29.67,6,2,11,0.00
2013-3-27,45,36,32,34,-66,-100,100,24,82,30.03,29.88,13,5,17,0.00
2013-3-28,44,38,33,37,-34,-100,100,48,72,30.17,30.00,8,4,13,0.00
2013-3-29,51,42,36,-100,-100,-100,0,0,100,30.17,30.08,8,4,14,0.00
2013-3-30,53,41,29,-100,-100,-100,0,0,100,30.17,30.03,8,2,12,0.00
2013-3-31,59,44,33,43,-54,-100,95,28,47,30.03,29.58,8,2,13,0.00
2013-4-1,44,36,27,41,-52,-100,97,31,82,29.91,29.52,15,5,26,0.00
2013-4-2,33,28,22,-100,-100,-100,0,0,100,30.08,29.91,13,6,24,0.00
2013-4-3,36,31,27,-100,-100,-100,0,0,100,30.35,30.06,12,5,18,0.00
2013-4-4,56,38,23,-100,-100,-100,0,0,100,30.35,29.88,9,2,15,0.00
2013-4-5,43,38,30,-100,-100,-100,0,0,100,30.11,29.85,9,3,13,0.00
2013-4-6,47,36,23,-100,-100,-100,0,0,100,30.29,30.03,8,2,13,0.00
2013-4-7,70,54,43,36,-78,-100,40,5,25,30.03,29.67,18,6,31,0.00
2013-4-8,57,46,41,45,-72,-100,95,15,48,30.11,29.73,7,1,9,0.00
2013-4-9,63,50,43,52,41,32,100,72,35,30.08,29.70,15,3,28,0.00
2013-4-10,47,42,39,46,42,39,100,99,97,30.03,29.85,8,2,11,0.00
2013-4-11,39,35,32,39,-21,-100,100,57,85,30.11,29.94,8,2,10,0.00
2013-4-12,52,41,34,52,26,-100,100,82,58,29.94,29.49,14,6,25,0.04
2013-4-13,46,42,39,36,-73,-100,79,15,62,29.91,29.73,17,7,28,0.00
2013-4-14,46,40,36,36,-95,-100,96,3,80,30.17,29.91,10,3,15,0.00
2013-4-15,74,56,36,39,-24,-100,45,17,22,30.14,29.97,8,3,12,0.00
2013-4-16,65,58,45,59,44,-100,100,68,44,30.23,29.94,10,4,15,0.00
2013-4-17,54,46,36,36,-95,-100,83,3,69,30.35,30.23,7,1,10,0.00
2013-4-18,77,61,45,55,4,-100,70,34,31,30.23,29.67,10,5,17,0.00
2013-4-19,74,59,42,54,13,-100,89,43,37,29.73,29.32,19,7,28,0.00
2013-4-20,42,38,33,34,-94,-100,89,4,82,30.41,29.70,16,7,28,0.00
2013-4-21,43,35,27,-100,-100,-100,0,0,100,30.70,30.41,6,1,8,0.00
2013-4-22,59,46,30,-100,-100,-100,0,0,100,30.62,30.32,9,2,13,0.00
2013-4-23,64,53,40,-100,-100,-100,0,0,100,30.35,29.94,7,3,13,0.00
2013-4-24,69,54,39,54,-3,-100,97,44,37,29.97,29.52,15,4,26,0.00
2013-4-25,57,44,35,39,-60,-100,89,24,63,30.29,29.97,13,3,17,0.00
2013-4-26,54,46,38,39,-51,-100,100,33,67,30.47,30.29,9,2,14,0.00
2013-4-27,69,53,37,32,-98,-100,77,1,71,30.44,30.20,6,1,8,0.00
2013-4-28,76,60,47,50,-64,-100,89,16,22,30.20,30.00,8,2,11,0.00
2013-4-29,65,58,50,54,44,37,93,61,44,30.03,29.97,7,2,10,0.00
2013-4-30,74,64,56,54,47,39,91,57,30,30.20,30.03,6,2,9,0.00
2013-5-1,79,68,58,48,-2,-100,70,30,19,30.32,30.20,7,2,10,0.00
2013-5-2,77,66,54,32,-88,-100,22,2,20,30.41,30.23,6,1,8,0.00
2013-5-3,77,66,52,41,-4,-100,64,22,20,30.29,30.17,7,1,11,0.00
2013-5-4,74,64,53,36,-42,-100,45,13,21,30.26,30.11,6,1,10,0.00
2013-5-5,77,64,48,43,-15,-100,80,26,20,30.17,30.06,6,1,10,0.00
2013-5-6,76,62,50,41,-28,-100,66,22,20,30.14,30.00,5,0,8,0.00
2013-5-7,77,66,53,52,42,32,79,45,25,30.11,29.97,4,0,8,0.00
2013-5-8,70,63,57,61,52,41,97,68,49,30.03,29.88,6,1,10,0.00
2013-5-9,72,63,57,66,56,48,100,82,46,29.94,29.85,4,0,7,0.00
2013-5-10,74,62,53,64,56,50,100,85,46,29.94,29.70,7,0,12,0.00
2013-5-11,60,54,47,61,49,39,100,84,55,29.73,29.61,10,3,15,0.00
2013-5-12,50,44,38,50,-28,-100,100,43,59,29.88,29.64,13,5,26,0.00
2013-5-13,50,42,36,32,-89,-100,79,6,68,30.11,29.88,10,4,20,0.00
2013-5-14,60,46,32,39,-70,-100,100,19,57,30.14,29.94,6,1,10,0.00
2013-5-15,80,61,46,55,20,-100,100,41,24,29.94,29.46,14,2,30,0.00
2013-5-16,76,64,53,46,1,-100,74,31,20,30.00,29.70,10,2,19,0.00
2013-5-17,68,56,42,48,-23,-100,91,33,32,30.20,30.00,4,0,8,0.00
2013-5-18,71,58,44,48,36,-100,97,49,24,30.26,30.11,5,1,8,0.00
2013-5-19,81,68,58,57,52,41,85,58,32,30.11,29.97,5,1,8,0.00
2013-5-20,85,73,64,63,58,52,91,63,34,30.03,29.82,5,0,8,0.00
2013-5-21,85,72,63,66,62,50,97,72,42,29.88,29.70,5,0,9,0.00
2013-5-22,88,73,63,72,63,48,100,76,30,29.76,29.61,7,1,14,0.00
2013-5-23,76,66,45,66,56,43,97,73,37,29.88,29.67,8,2,16,0.00
2013-5-24,52,44,39,48,15,-100,100,75,48,30.17,29.88,4,1,8,0.00
2013-5-25,59,50,39,37,-51,-100,83,26,56,30.20,30.11,6,2,13,0.00
2013-5-26,63,54,44,34,-62,-100,66,17,48,30.17,30.08,6,1,12,0.00
2013-5-27,72,57,40,43,-44,-100,97,29,30,30.26,30.11,5,0,11,0.00
2013-5-28,63,57,51,63,47,-100,100,77,42,30.14,29.91,4,0,6,0.00
2013-5-29,81,71,60,72,60,46,100,72,34,30.00,29.88,12,3,23,0.00
2013-5-30,88,76,64,70,56,41,98,56,19,30.08,30.00,7,2,13,0.00
2013-5-31,90,78,67,66,59,46,92,56,23,30.06,29.91,7,1,14,0.00
2013-6-1,88,75,67,70,62,54,100,67,31,29.94,29.73,13,2,27,0.00
2013-6-2,76,69,59,70,60,45,100,75,35,29.85,29.64,14,3,25,0.00
2013-6-3,66,57,51,48,30,-100,78,51,30,30.00,29.85,7,2,13,0.00
2013-6-4,68,58,48,45,-33,-100,89,33,33,30.14,30.00,6,1,11,0.00
2013-6-5,70,59,49,50,-3,-100,85,39,24,30.20,30.06,5,0,6,0.00
2013-6-6,59,57,54,59,51,34,100,84,40,30.08,29.82,6,1,10,0.00
2013-6-7,64,59,56,64,59,55,100,99,98,29.82,29.76,3,0,5,0.00
2013-6-8,64,59,56,63,56,50,100,90,66,30.06,29.79,6,1,10,0.00
2013-6-9,75,65,55,55,49,43,91,59,33,30.17,30.06,5,1,10,0.00
2013-6-10,71,65,61,66,60,54,100,85,63,30.11,29.67,6,2,10,0.00
2013-6-11,68,64,60,66,62,50,100,91,70,29.82,29.61,7,1,13,0.00
2013-6-12,76,66,53,61,49,36,97,60,25,29.91,29.73,4,0,6,0.00
2013-6-13,67,61,57,61,58,54,100,88,63,29.76,29.49,5,1,10,0.00
2013-6-14,74,64,53,66,54,43,100,74,35,29.97,29.76,6,1,10,0.00
2013-6-15,76,65,53,57,45,32,97,55,22,30.03,29.91,8,2,12,0.00
2013-6-16,75,66,60,68,58,50,100,77,60,29.94,29.67,8,2,14,0.00
2013-6-17,78,69,61,66,56,46,100,66,36,29.91,29.79,8,1,15,0.00
2013-6-18,70,62,56,57,46,34,96,62,28,30.00,29.88,4,0,6,0.00
2013-6-19,68,60,51,48,-3,-100,78,38,27,30.17,30.00,4,0,6,0.00
2013-6-20,76,61,46,57,20,-100,97,47,20,30.26,30.17,5,0,6,0.00
2013-6-21,83,68,52,57,45,36,91,49,20,30.26,30.14,4,0,6,0.00
2013-6-22,86,75,61,68,61,52,96,65,33,30.14,29.97,8,1,13,0.00
2013-6-23,89,80,70,70,64,54,91,62,32,30.06,29.97,9,2,16,0.00
2013-6-24,86,78,69,70,61,52,97,60,31,30.03,29.91,9,2,15,0.00
2013-6-25,81,75,70,68,64,57,91,71,48,29.91,29.76,10,2,15,0.00
2013-6-26,84,75,70,68,64,55,91,70,42,29.79,29.76,8,3,15,0.00
2013-6-27,81,72,66,72,66,61,98,83,60,29.79,29.58,4,0,6,0.00
2013-6-28,67,65,62,66,65,63,100,99,93,29.58,29.46,3,0,5,0.00
2013-6-29,78,68,62,73,63,55,100,87,50,29.67,29.46,2,0,5,0.00
2013-6-30,78,69,60,70,59,52,100,74,44,29.91,29.67,4,0,8,0.00
2013-7-1,68,65,61,64,62,57,100,90,71,30.03,29.91,4,0,9,0.00
2013-7-2,78,67,60,70,63,61,100,88,60,30.08,30.00,3,0,5,0.00
2013-7-3,87,72,67,77,68,61,100,87,45,30.14,30.06,8,0,15,0.00
2013-7-4,86,75,69,73,68,57,100,82,39,30.17,30.08,6,1,10,0.00
2013-7-5,85,76,70,75,68,61,98,79,45,30.14,30.03,7,1,14,0.00
2013-7-6,87,76,67,70,63,50,98,69,32,30.14,30.00,5,0,8,0.00
2013-7-7,82,76,71,75,65,57,98,72,44,30.03,29.91,8,2,14,0.00
2013-7-8,86,76,69,73,66,57,100,74,40,30.03,29.94,7,1,10,0.00
2013-7-9,84,75,70,75,68,61,98,81,48,30.03,29.88,5,0,8,0.00
2013-7-10,86,77,71,73,68,55,100,75,44,29.88,29.67,10,3,18,0.00
2013-7-11,79,71,62,61,54,46,84,58,33,30.00,29.79,7,0,8,0.00
2013-7-12,76,68,61,70,58,50,97,73,46,30.17,30.00,3,0,5,0.00
2013-7-13,81,72,61,73,63,55,100,75,46,30.23,30.14,4,0,6,0.00
2013-7-14,89,78,68,75,65,59,100,68,37,30.29,30.23,5,0,6,0.00
2013-7-15,92,80,72,75,65,50,97,63,30,30.29,30.20,4,0,6,0.00
2013-7-16,92,80,68,73,62,50,97,60,27,30.29,30.20,5,0,6,0.00
2013-7-17,93,82,70,77,69,57,97,70,32,30.23,30.06,9,2,13,0.00
2013-7-18,91,82,74,79,71,63,98,71,46,30.08,29.94,8,1,14,0.00
2013-7-19,91,81,69,73,66,52,97,65,30,29.94,29.67,12,4,25,0.00
2013-7-20,81,73,68,70,64,46,100,77,30,29.85,29.67,9,1,13,0.00
2013-7-21,78,70,63,64,56,48,96,64,36,30.00,29.85,5,0,7,0.00
2013-7-22,81,70,60,66,57,48,97,67,35,30.00,29.76,4,0,7,0.00
2013-7-23,84,74,68,72,62,48,100,72,30,29.76,29.58,9,1,14,0.00
2013-7-24,68,63,55,55,45,37,77,54,32,30.03,29.67,6,1,10,0.00
2013-7-25,74,62,50,61,45,32,100,59,23,30.11,30.03,5,0,8,0.00
2013-7-26,78,65,52,61,47,39,100,58,27,30.11,30.00,4,0,6,0.00
2013-7-27,76,62,58,63,55,50,97,81,50,30.00,29.91,3,0,6,0.00
2013-7-28,74,67,60,68,59,52,100,77,46,29.97,29.82,5,0,8,0.00
2013-7-29,71,64,57,57,52,41,97,69,34,30.11,29.97,9,2,14,0.00
2013-7-30,75,66,57,59,54,43,100,68,33,30.20,30.11,8,1,10,0.00
2013-7-31,81,68,57,64,55,45,100,69,30,30.14,29.91,5,0,8,0.00
2013-8-1,76,69,63,72,62,52,100,81,43,29.91,29.76,8,1,13,0.00
2013-8-2,74,66,59,68,58,43,100,79,33,29.88,29.82,7,0,11,0.00
2013-8-3,76,68,61,64,54,41,100,67,29,29.91,29.79,8,2,12,0.00
2013-8-4,71,65,58,63,50,39,97,62,34,30.03,29.91,6,1,9,0.00
2013-8-5,74,63,52,61,48,37,100,62,27,30.11,30.00,6,0,8,0.00
2013-8-6,80,67,55,63,50,37,100,63,22,30.06,29.97,7,0,8,0.00
2013-8-7,82,73,65,66,60,57,86,66,44,29.97,29.85,6,1,10,0.00
2013-8-8,85,74,67,73,66,61,100,80,45,29.94,29.88,7,0,10,0.00
2013-8-9,78,71,66,72,65,48,100,84,40,29.91,29.82,6,1,9,0.00
2013-8-10,73,66,58,63,50,39,100,62,30,30.08,29.91,6,0,9,0.00
2013-8-11,76,65,54,64,49,37,100,63,27,30.11,30.03,6,0,8,0.00
2013-8-12,77,68,61,64,57,46,96,70,36,30.03,29.85,5,0,8,0.00
2013-8-13,72,66,59,68,57,41,100,75,39,29.85,29.73,8,2,17,0.00
2013-8-14,69,60,53,61,47,36,100,65,32,30.06,29.82,8,2,15,0.00
2013-8-15,74,62,50,57,45,34,100,59,24,30.11,30.06,9,2,15,0.00
2013-8-16,77,65,53,61,50,41,100,64,28,30.20,30.11,5,0,8,0.00
2013-8-17,80,67,55,66,52,39,100,66,26,30.29,30.20,4,0,6,0.00
2013-8-18,81,69,57,63,53,41,97,63,28,30.23,30.08,4,0,6,0.00
2013-8-19,83,70,59,66,56,45,100,66,26,30.11,30.00,6,0,9,0.00
2013-8-20,84,71,59,66,55,45,100,63,26,30.11,30.03,6,1,11,0.00
2013-8-21,86,73,62,66,57,46,97,62,25,30.14,30.00,7,1,10,0.00
2013-8-22,83,73,65,68,63,48,97,72,47,30.03,29.88,8,1,13,0.00
2013-8-23,75,67,58,68,50,39,98,59,31,30.20,29.97,4,0,6,0.00
2013-8-24,78,64,52,63,46,32,100,60,20,30.35,30.20,5,0,7,0.00
2013-8-25,83,68,54,61,48,37,100,56,21,30.35,30.11,6,1,11,0.00
2013-8-26,77,69,64,70,66,59,100,92,64,30.14,29.91,8,2,12,0.00
2013-8-27,84,73,68,79,69,66,100,89,57,29.94,29.85,5,0,8,0.00
2013-8-28,83,74,69,77,68,61,100,83,51,29.94,29.82,4,0,6,0.00
2013-8-29,86,74,66,79,65,57,100,77,41,30.03,29.94,3,0,6,0.00
2013-8-30,84,74,64,73,64,55,100,75,42,30.00,29.73,6,0,9,0.00
2013-8-31,82,74,68,72,68,63,97,83,55,29.85,29.70,7,0,12,0.00
2013-9-1,80,72,67,70,67,61,100,85,57,29.82,29.73,4,0,6,0.00
2013-9-2,82,72,64,75,66,55,100,84,43,29.76,29.64,8,1,16,0.00
2013-9-3,67,64,61,59,56,50,91,75,59,29.91,29.76,10,3,14,0.00
2013-9-4,77,66,54,63,52,36,100,66,22,29.97,29.91,9,3,17,0.00
2013-9-5,68,59,49,61,38,-100,100,64,27,30.20,29.94,4,0,10,0.00
2013-9-6,71,57,43,50,41,32,100,61,24,30.29,30.08,6,0,9,0.00
2013-9-7,64,58,53,63,55,48,100,87,71,30.08,29.85,6,0,10,0.00
2013-9-8,68,62,50,66,47,32,100,66,27,30.11,29.82,5,0,9,0.00
2013-9-9,77,60,45,63,48,39,100,70,33,30.14,29.94,6,0,9,0.00
2013-9-10,91,78,66,75,67,59,100,72,40,29.97,29.88,10,2,17,0.00
2013-9-11,92,81,74,75,68,55,97,70,30,30.03,29.88,8,2,12,0.00
2013-9-12,74,69,61,70,66,61,100,90,73,29.91,29.70,7,1,11,0.00
2013-9-13,61,55,50,61,54,46,100,96,81,30.00,29.73,3,0,8,0.00
2013-9-14,63,52,47,50,34,-100,100,70,33,30.11,30.00,6,0,10,0.00
2013-9-15,68,56,45,52,45,41,97,71,39,30.14,30.03,5,0,10,0.00
2013-9-16,54,51,44,55,50,43,100,98,91,30.38,30.06,3,0,6,0.00
2013-9-17,65,51,38,52,21,-100,100,64,30,30.50,30.29,5,0,6,0.00
2013-9-18,74,57,44,52,36,-100,100,62,21,30.29,30.08,5,0,6,0.00
2013-9-19,78,63,51,59,49,41,100,67,28,30.11,30.00,4,0,8,0.00
2013-9-20,84,69,57,63,57,52,100,71,34,30.00,29.73,5,0,9,0.00
2013-9-21,71,64,54,63,59,54,100,87,58,29.76,29.61,6,0,10,0.00
2013-9-22,57,52,50,54,43,32,100,73,40,30.00,29.70,5,2,11,0.00
2013-9-23,60,52,44,45,35,-100,84,60,35,30.14,30.00,4,0,6,0.00
2013-9-24,67,52,39,57,17,-100,100,62,28,30.14,30.00,4,0,5,0.00
2013-9-25,70,54,42,55,41,32,100,69,25,30.00,29.94,4,0,7,0.00
2013-9-26,71,56,44,57,46,43,100,73,39,30.14,29.97,4,0,6,0.00
2013-9-27,67,55,46,61,49,45,100,81,49,30.26,30.14,4,0,6,0.00
2013-9-28,73,59,45,63,48,43,100,73,35,30.29,30.17,4,0,6,0.00
2013-9-29,75,61,48,55,46,41,100,65,29,30.17,29.97,5,0,11,0.00
2013-9-30,77,64,56,59,53,48,91,69,40,30.00,29.91,5,0,6,0.00
2013-10-1,76,66,58,64,55,41,100,72,29,30.00,29.88,6,1,12,0.00
2013-10-2,77,67,59,64,57,37,97,73,25,30.08,29.88,7,2,11,0.00
2013-10-3,72,61,49,59,45,-100,100,69,22,30.14,30.00,4,0,8,0.00
2013-10-4,66,62,58,66,62,52,100,98,76,30.06,29.97,0,0,3,0.00
2013-10-5,63,61,59,63,59,55,100,95,83,30.08,30.03,3,0,8,0.00
2013-10-6,80,68,60,79,66,57,100,92,73,30.03,29.70,4,0,10,0.00
2013-10-7,73,61,50,64,54,41,100,79,51,30.03,29.58,9,3,15,0.00
2013-10-8,65,53,46,50,40,-100,100,69,30,30.35,30.03,5,1,8,0.00
2013-10-9,68,52,40,54,42,32,100,71,28,30.41,30.29,4,0,5,0.00
2013-10-10,67,53,42,52,38,-100,100,66,28,30.29,30.14,4,0,6,0.00
2013-10-11,69,54,44,61,44,37,100,74,32,30.14,30.11,3,0,6,0.00
2013-10-12,74,57,42,57,16,-100,100,57,22,30.20,30.11,5,0,10,0.00
2013-10-13,72,61,53,63,52,37,100,73,46,30.26,30.17,4,0,7,0.00
2013-10-14,63,57,47,61,51,37,100,83,47,30.32,30.23,4,0,8,0.00
2013-10-15,69,55,43,61,48,43,100,81,45,30.29,29.94,5,0,6,0.00
2013-10-16,65,61,57,61,54,45,100,80,55,29.94,29.73,7,1,13,0.00
2013-10-17,64,56,48,54,48,39,100,77,41,29.85,29.64,6,1,10,0.00
2013-10-18,60,53,49,54,17,-100,100,63,37,29.88,29.67,10,3,17,0.00
2013-10-19,64,53,44,48,40,32,100,65,33,29.88,29.61,9,2,14,0.00
2013-10-20,53,47,39,46,38,-100,100,76,44,29.97,29.70,8,2,13,0.00
2013-10-21,67,55,43,46,-15,-100,100,44,31,29.97,29.76,6,1,11,0.00
2013-10-22,53,46,39,50,-40,-100,100,37,62,29.82,29.70,13,3,22,0.00
2013-10-23,45,39,34,39,5,-100,100,65,60,29.79,29.67,6,0,9,0.00
2013-10-24,48,40,33,39,-59,-100,100,29,63,30.00,29.76,12,4,24,0.00
2013-10-25,49,41,35,43,11,-100,100,74,54,30.17,30.00,8,2,13,0.00
2013-10-26,46,42,38,39,-53,-100,100,30,67,30.11,29.76,10,4,18,0.00
2013-10-27,48,42,37,37,-20,-100,97,50,59,30.03,29.79,8,2,15,0.00
2013-10-28,50,41,29,37,-38,-100,89,35,54,30.38,30.00,4,0,7,0.00
2013-10-29,46,36,26,-100,-100,-100,0,0,100,30.47,30.29,4,0,6,0.00
2013-10-30,56,45,37,43,12,-100,100,63,39,30.29,30.08,4,0,5,0.00
2013-10-31,66,55,42,63,50,36,100,87,67,30.08,29.35,5,1,10,0.00
2013-11-1,64,57,48,61,47,34,100,72,38,29.64,29.17,19,6,31,0.00
2013-11-2,50,45,37,48,44,37,100,96,74,29.97,29.58,6,1,9,0.00
2013-11-3,38,34,29,37,-82,-100,100,13,86,30.53,29.97,5,0,7,0.00
2013-11-4,42,34,24,-100,-100,-100,0,0,100,30.68,30.44,7,1,10,0.00
2013-11-5,58,46,36,-100,-100,-100,0,0,100,30.47,30.32,5,1,9,0.00
2013-11-6,66,56,47,57,18,-100,99,46,34,30.32,29.76,6,2,10,0.00
2013-11-7,58,45,38,57,-33,-100,100,42,64,29.97,29.76,10,3,16,0.00
2013-11-8,43,38,35,36,-80,-100,96,13,77,30.20,29.91,12,4,22,0.00
2013-11-9,50,42,34,41,-72,-100,96,16,53,30.20,29.73,7,2,11,0.00
2013-11-10,50,44,39,43,-35,-100,96,35,49,30.14,29.73,16,6,25,0.00
2013-11-11,46,37,30,39,-53,-100,100,31,64,30.14,29.88,13,3,24,0.00
2013-11-12,32,28,24,-100,-100,-100,0,0,100,30.38,30.08,8,2,14,0.00
2013-11-13,38,29,18,-100,-100,-100,0,0,100,30.41,30.03,11,4,20,0.00
2013-11-14,50,41,35,-100,-100,-100,0,0,100,30.08,29.97,15,6,26,0.00
2013-11-15,53,45,38,-100,-100,-100,0,0,100,30.08,30.03,5,1,6,0.00
2013-11-16,59,50,40,36,-84,-100,58,6,46,30.23,30.03,5,0,8,0.00
2013-11-17,62,57,50,54,48,36,100,73,56,30.03,29.32,17,4,31,0.00
2013-11-18,56,47,36,50,-50,-100,95,21,46,29.85,29.32,18,9,35,0.00
2013-11-19,37,34,27,-100,-100,-100,0,0,100,30.44,29.85,12,4,25,0.00
2013-11-20,38,30,21,-100,-100,-100,0,0,100,30.62,30.44,6,1,9,0.00
2013-11-21,45,38,30,37,-76,-100,91,15,70,30.47,30.23,7,2,10,0.00
2013-11-22,48,42,33,48,24,-100,100,85,77,30.23,29.97,11,2,17,0.00
2013-11-23,36,28,18,-100,-100,-100,0,0,100,30.17,29.97,14,5,26,0.00
2013-11-24,23,19,16,-100,-100,-100,0,0,100,30.38,30.14,10,4,15,0.00
2013-11-25,35,27,17,-100,-100,-100,0,0,100,30.38,30.08,9,3,15,0.00
2013-11-26,36,34,32,34,-53,-100,100,35,94,30.11,29.79,7,1,12,0.00
2013-11-27,34,30,22,34,-26,-100,100,55,98,29.85,29.58,7,2,12,0.00
2013-11-28,27,22,16,-100,-100,-100,0,0,100,30.41,29.85,8,2,12,0.00
2013-11-29,28,22,11,-100,-100,-100,0,0,100,30.76,30.41,4,0,8,0.00
2013-11-30,32,22,8,-100,-100,-100,0,0,100,30.76,30.17,5,2,8,0.00
2013-12-1,38,34,30,36,-56,-100,100,32,88,30.17,29.94,4,1,8,0.00
2013-12-2,40,36,33,36,-10,-100,100,63,77,29.94,29.82,3,0,6,0.00
2013-12-3,40,34,29,32,-96,-100,100,3,96,29.97,29.88,4,0,7,0.00
2013-12-4,48,39,32,39,-1,-100,100,60,57,30.00,29.88,4,0,6,0.00
2013-12-5,62,51,40,52,29,-100,91,68,46,29.97,29.70,12,4,22,0.00
2013-12-6,40,34,31,34,-66,-100,100,24,74,30.23,29.97,6,3,11,0.00
2013-12-7,31,28,24,-100,-100,-100,0,0,100,30.56,30.20,10,5,19,0.00
2013-12-8,28,24,19,-100,-100,-100,0,0,100,30.59,30.20,8,2,13,0.00
2013-12-9,40,34,26,36,-61,-100,100,25,75,30.20,29.82,14,6,28,0.00
2013-12-10,34,25,18,-100,-100,-100,0,0,100,30.03,29.88,12,5,19,0.00
2013-12-11,24,21,13,-100,-100,-100,0,0,100,30.23,30.03,12,5,26,0.00
2013-12-12,20,15,10,-100,-100,-100,0,0,100,30.29,30.00,12,5,18,0.00
2013-12-13,23,18,13,-100,-100,-100,0,0,100,30.38,29.97,14,4,23,0.00
2013-12-14,24,13,8,-100,-100,-100,0,0,100,30.44,29.70,7,3,10,0.00
2013-12-15,25,21,18,-100,-100,-100,0,0,100,29.79,29.55,14,4,25,0.00
2013-12-16,21,15,4,-100,-100,-100,0,0,100,30.14,29.79,13,4,20,0.00
2013-12-17,27,17,0,-100,-100,-100,0,0,100,30.11,29.85,8,1,12,0.00
2013-12-18,32,28,23,-100,-100,-100,0,0,100,30.03,29.88,12,3,23,0.00
2013-12-19,42,35,26,-100,-100,-100,0,0,100,30.00,29.85,14,3,22,0.00
2013-12-20,43,39,35,43,23,-100,100,86,79,29.97,29.76,4,0,6,0.00
2013-12-21,52,39,32,52,35,-100,100,96,97,29.88,29.67,7,1,9,0.00
2013-12-22,46,36,32,46,32,-100,100,93,80,29.94,29.52,13,-124,22,0.00
2013-12-23,41,35,26,37,-29,-100,97,45,76,30.23,29.91,11,3,17,0.00
2013-12-24,25,20,11,-100,-100,-100,0,0,100,30.47,30.17,7,2,11,0.00
2013-12-25,25,14,4,-100,-100,-100,0,0,100,30.53,30.17,5,1,9,0.00
2013-12-26,31,27,23,-100,-100,-100,0,0,100,30.26,30.03,11,3,16,0.00
2013-12-27,32,27,21,-100,-100,-100,0,0,100,30.26,30.06,9,2,13,0.00
2013-12-28,43,38,31,32,-95,-100,92,3,70,30.06,29.91,11,4,18,0.00
2013-12-29,45,40,28,41,-52,-100,100,33,60,29.91,29.58,10,2,17,0.00
2013-12-30,28,18,14,-100,-100,-100,0,0,100,30.20,29.73,10,3,17,0.00
2013-12-31,24,18,14,-100,-100,-100,0,0,100,30.20,29.94,14,4,26,0.00
2014-1-1,21,17,14,-100,-100,-100,0,0,100,30.38,30.20,10,3,15,0.00
2014-1-2,14,11,5,-100,-100,-100,0,0,100,30.26,29.94,9,4,15,0.00